Time,TemperatureF,DewpointF,PressureIn,WindDirection,WindDirectionDegrees,WindSpeedMPH,WindSpeedGustMPH,Humidity,HourlyPrecipIn,Conditions,Clouds,dailyrainin,SolarRadiationWatts/m^2,SoftwareType,DateUTC
2013-05-15 00:00:00,50.6,48.2,29.67,SW,233,10.1,15.2,91,0.00,,,-99.99,1.0,HOBO +U30 +Weather +,2013-05-15 07:00:00,
2013-05-15 00:05:00,50.5,48.2,29.68,SW,229,8.9,16.3,91,0.00,,,-99.99,1.0,HOBO +U30 +Weather +,2013-05-15 07:05:00,
2013-05-15 00:10:00,50.4,48.1,29.67,SW,232,11.2,18.6,91,0.00,,,-99.99,1.0,HOBO +U30 +Weather +,2013-05-15 07:10:00,
2013-05-15 00:15:00,50.3,48.1,29.67,SW,234,10.7,18.6,92,0.00,,,-99.99,1.0,HOBO +U30 +Weather +,2013-05-15 07:15:00,
2013-05-15 00:20:00,50.3,48.1,29.67,SW,232,10.1,18.1,92,0.00,,,-99.99,1.0,HOBO +U30 +Weather +,2013-05-15 07:20:00,
2013-05-15 00:25:00,50.3,48.1,29.67,SW,233,9.6,18.1,92,0.00,,,-99.99,1.0,HOBO +U30 +Weather +,2013-05-15 07:25:00,
2013-05-15 00:30:00,50.2,48.1,29.67,SW,233,10.7,20.8,92,0.00,,,-99.99,1.0,HOBO +U30 +Weather +,2013-05-15 07:30:00,
2013-05-15 00:35:00,50.2,48.1,29.68,SW,234,11.2,19.7,92,0.00,,,-99.99,1.0,HOBO +U30 +Weather +,2013-05-15 07:35:00,
2013-05-15 00:40:00,50.2,48.0,29.67,SW,236,10.7,18.1,92,0.00,,,-99.99,1.0,HOBO +U30 +Weather +,2013-05-15 07:40:00,
2013-05-15 00:45:00,50.2,48.0,29.67,SW,236,11.2,18.1,92,0.00,,,-99.99,1.0,HOBO +U30 +Weather +,2013-05-15 07:45:00,
2013-05-15 00:50:00,50.1,48.0,29.68,SW,234,9.6,18.1,92,0.00,,,-99.99,1.0,HOBO +U30 +Weather +,2013-05-15 07:50:00,
2013-05-15 00:55:00,50.1,48.0,29.67,WSW,240,10.1,19.2,92,0.00,,,-99.99,1.0,HOBO +U30 +Weather +,2013-05-15 07:55:00,
2013-05-15 01:00:00,50.0,47.9,29.67,SW,232,10.7,20.4,92,0.00,,,-99.99,1.0,HOBO +U30 +Weather +,2013-05-15 08:00:00,
2013-05-15 01:05:00,50.0,47.9,29.67,SW,232,11.2,18.6,92,0.00,,,-99.99,1.0,HOBO +U30 +Weather +,2013-05-15 08:05:00,
2013-05-15 01:10:00,50.1,48.0,29.67,SW,233,10.7,17.0,92,0.00,,,-99.99,1.0,HOBO +U30 +Weather +,2013-05-15 08:10:00,
2013-05-15 01:15:00,50.1,48.1,29.67,SW,232,10.7,18.1,92,0.00,,,-99.99,1.0,HOBO +U30 +Weather +,2013-05-15 08:15:00,
2013-05-15 01:20:00,50.0,48.1,29.67,SW,236,13.4,24.2,93,0.00,,,-99.99,1.0,HOBO +U30 +Weather +,2013-05-15 08:20:00,
2013-05-15 01:25:00,50.0,48.0,29.67,SW,232,11.9,19.7,93,0.00,,,-99.99,1.0,HOBO +U30 +Weather +,2013-05-15 08:25:00,
2013-05-15 01:30:00,49.9,48.0,29.67,SW,234,13.0,20.4,93,0.00,,,-99.99,1.0,HOBO +U30 +Weather +,2013-05-15 08:30:00,
2013-05-15 01:35:00,49.9,48.0,29.67,SW,230,13.4,20.8,93,0.00,,,-99.99,1.0,HOBO +U30 +Weather +,2013-05-15 08:35:00,
2013-05-15 01:40:00,49.9,48.0,29.66,SW,234,13.4,19.7,93,0.00,,,-99.99,1.0,HOBO +U30 +Weather +,2013-05-15 08:40:00,
2013-05-15 01:45:00,49.9,48.0,29.66,SW,229,13.4,21.5,93,0.00,,,-99.99,1.0,HOBO +U30 +Weather +,2013-05-15 08:45:00,
2013-05-15 01:50:00,49.9,48.0,29.67,SW,227,12.3,20.4,93,0.00,,,-99.99,1.0,HOBO +U30 +Weather +,2013-05-15 08:50:00,
2013-05-15 01:55:00,49.8,48.0,29.67,SW,229,11.9,16.3,93,0.00,,,-99.99,1.0,HOBO +U30 +Weather +,2013-05-15 08:55:00,
2013-05-15 02:00:00,49.7,47.9,29.67,SW,234,11.9,18.6,93,0.00,,,-99.99,1.0,HOBO +U30 +Weather +,2013-05-15 09:00:00,
2013-05-15 02:05:00,49.7,47.9,29.67,SW,234,11.9,19.7,93,0.00,,,-99.99,1.0,HOBO +U30 +Weather +,2013-05-15 09:05:00,
2013-05-15 02:10:00,49.7,47.8,29.67,SW,230,10.7,15.9,93,0.00,,,-99.99,1.0,HOBO +U30 +Weather +,2013-05-15 09:10:00,
2013-05-15 02:15:00,49.7,47.8,29.67,SW,232,10.7,17.4,93,0.00,,,-99.99,1.0,HOBO +U30 +Weather +,2013-05-15 09:15:00,
2013-05-15 02:20:00,49.7,47.9,29.67,SW,233,11.9,19.7,93,0.00,,,-99.99,1.0,HOBO +U30 +Weather +,2013-05-15 09:20:00,
2013-05-15 02:25:00,49.7,47.9,29.67,SW,230,11.2,18.6,93,0.00,,,-99.99,1.0,HOBO +U30 +Weather +,2013-05-15 09:25:00,
2013-05-15 02:39:00,49.7,47.8,29.67,SW,230,10.7,17.4,93,0.00,,,-99.99,1.0,HOBO +U30 +Weather +,2013-05-15 09:39:00,
2013-05-15 02:40:00,49.6,47.8,29.67,SW,229,8.9,15.9,93,0.00,,,-99.99,1.0,HOBO +U30 +Weather +,2013-05-15 09:40:00,
2013-05-15 02:45:00,49.5,47.7,29.67,SW,233,9.6,17.0,93,0.00,,,-99.99,1.0,HOBO +U30 +Weather +,2013-05-15 09:45:00,
2013-05-15 02:50:00,49.5,47.7,29.67,SW,233,10.7,17.0,93,0.00,,,-99.99,1.0,HOBO +U30 +Weather +,2013-05-15 09:50:00,
2013-05-15 02:55:00,49.5,47.6,29.67,SW,230,9.6,15.9,93,0.00,,,-99.99,1.0,HOBO +U30 +Weather +,2013-05-15 09:55:00,
2013-05-15 03:00:00,49.5,47.5,29.67,SW,233,10.7,18.1,92,0.00,,,-99.99,1.0,HOBO +U30 +Weather +,2013-05-15 10:00:00,
2013-05-15 03:05:00,49.5,47.5,29.67,SW,232,9.6,17.0,92,0.00,,,-99.99,1.0,HOBO +U30 +Weather +,2013-05-15 10:05:00,
2013-05-15 03:10:00,49.5,47.5,29.67,SW,233,9.6,18.1,92,0.00,,,-99.99,1.0,HOBO +U30 +Weather +,2013-05-15 10:10:00,
2013-05-15 03:15:00,49.5,47.4,29.67,SW,230,8.5,14.1,92,0.00,,,-99.99,1.0,HOBO +U30 +Weather +,2013-05-15 10:15:00,
2013-05-15 03:20:00,49.4,47.4,29.67,SW,233,7.8,14.5,92,0.00,,,-99.99,1.0,HOBO +U30 +Weather +,2013-05-15 10:20:00,
2013-05-15 03:25:00,49.4,47.4,29.67,SW,236,10.7,18.6,92,0.00,,,-99.99,1.0,HOBO +U30 +Weather +,2013-05-15 10:25:00,
2013-05-15 03:30:00,49.4,47.4,29.67,SW,230,10.1,17.4,92,0.00,,,-99.99,1.0,HOBO +U30 +Weather +,2013-05-15 10:30:00,
2013-05-15 03:35:00,49.3,47.5,29.67,SW,232,9.6,15.9,93,0.00,,,-99.99,1.0,HOBO +U30 +Weather +,2013-05-15 10:35:00,
2013-05-15 03:40:00,49.3,47.5,29.67,SW,230,11.2,19.7,93,0.00,,,-99.99,1.0,HOBO +U30 +Weather +,2013-05-15 10:40:00,
2013-05-15 03:45:00,49.4,47.6,29.67,SW,229,10.7,18.6,93,0.00,,,-99.99,1.0,HOBO +U30 +Weather +,2013-05-15 10:45:00,
2013-05-15 03:50:00,49.5,47.8,29.67,SW,236,10.1,15.9,93,0.00,,,-99.99,1.0,HOBO +U30 +Weather +,2013-05-15 10:50:00,
2013-05-15 03:55:00,49.6,47.9,29.67,SW,236,9.6,17.0,93,0.00,,,-99.99,1.0,HOBO +U30 +Weather +,2013-05-15 10:55:00,
2013-05-15 04:00:00,49.6,47.8,29.67,SW,234,7.8,13.4,93,0.00,,,-99.99,1.0,HOBO +U30 +Weather +,2013-05-15 11:00:00,
2013-05-15 04:05:00,49.5,47.9,29.67,SW,229,8.5,14.5,93,0.00,,,-99.99,1.0,HOBO +U30 +Weather +,2013-05-15 11:05:00,
2013-05-15 04:10:00,49.6,47.9,29.67,SW,227,8.9,15.2,94,0.00,,,-99.99,1.0,HOBO +U30 +Weather +,2013-05-15 11:10:00,
2013-05-15 04:15:00,49.6,47.9,29.67,SW,232,10.1,16.3,93,0.00,,,-99.99,1.0,HOBO +U30 +Weather +,2013-05-15 11:15:00,
2013-05-15 04:20:00,49.6,48.0,29.67,SW,230,8.9,15.9,94,0.00,,,-99.99,1.0,HOBO +U30 +Weather +,2013-05-15 11:20:00,
2013-05-15 04:25:00,49.6,47.9,29.67,SW,234,8.9,14.1,93,0.00,,,-99.99,1.0,HOBO +U30 +Weather +,2013-05-15 11:25:00,
2013-05-15 04:30:00,49.5,47.9,29.68,SW,236,8.5,14.5,94,0.00,,,-99.99,1.0,HOBO +U30 +Weather +,2013-05-15 11:30:00,
2013-05-15 04:35:00,49.5,47.9,29.68,SW,233,8.5,14.1,94,0.00,,,-99.99,1.0,HOBO +U30 +Weather +,2013-05-15 11:35:00,
2013-05-15 04:40:00,49.4,48.0,29.68,SW,234,8.9,13.4,94,0.00,,,-99.99,1.0,HOBO +U30 +Weather +,2013-05-15 11:40:00,
2013-05-15 04:45:00,49.4,47.9,29.68,SW,233,7.8,11.9,94,0.00,,,-99.99,1.0,HOBO +U30 +Weather +,2013-05-15 11:45:00,
2013-05-15 04:50:00,49.5,48.0,29.67,SW,234,8.5,13.4,94,0.00,,,-99.99,1.0,HOBO +U30 +Weather +,2013-05-15 11:50:00,
2013-05-15 04:55:00,49.5,48.0,29.67,SW,233,9.6,14.5,94,0.00,,,-99.99,1.0,HOBO +U30 +Weather +,2013-05-15 11:55:00,
2013-05-15 05:00:00,49.5,48.0,29.67,SW,236,8.5,15.9,94,0.00,,,-99.99,1.0,HOBO +U30 +Weather +,2013-05-15 12:00:00,
2013-05-15 05:05:00,49.5,47.9,29.67,SW,236,7.8,13.4,94,0.00,,,-99.99,1.0,HOBO +U30 +Weather +,2013-05-15 12:05:00,
2013-05-15 05:10:00,49.5,48.0,29.67,SW,234,8.9,16.3,94,0.00,,,-99.99,1.0,HOBO +U30 +Weather +,2013-05-15 12:10:00,
2013-05-15 05:15:00,49.5,48.0,29.67,SW,233,8.9,15.2,94,0.00,,,-99.99,1.0,HOBO +U30 +Weather +,2013-05-15 12:15:00,
2013-05-15 05:20:00,49.5,48.0,29.67,SW,230,9.6,15.9,94,0.00,,,-99.99,1.0,HOBO +U30 +Weather +,2013-05-15 12:20:00,
2013-05-15 05:25:00,49.4,47.9,29.67,SW,233,9.6,17.0,94,0.00,,,-99.99,1.0,HOBO +U30 +Weather +,2013-05-15 12:25:00,
2013-05-15 05:35:00,49.4,47.8,29.67,SW,236,8.5,16.3,94,0.00,,,-99.99,1.0,HOBO +U30 +Weather +,2013-05-15 12:35:00,
2013-05-15 05:38:00,49.4,47.8,29.67,SW,236,8.5,14.1,94,0.00,,,-99.99,1.0,HOBO +U30 +Weather +,2013-05-15 12:38:00,
2013-05-15 05:40:00,49.4,47.7,29.68,SW,236,7.8,15.2,93,0.00,,,-99.99,1.0,HOBO +U30 +Weather +,2013-05-15 12:40:00,
2013-05-15 05:45:00,49.4,47.6,29.67,SW,230,8.5,13.0,93,0.00,,,-99.99,1.0,HOBO +U30 +Weather +,2013-05-15 12:45:00,
2013-05-15 05:50:00,49.5,47.6,29.68,SW,230,8.9,15.2,93,0.00,,,-99.99,1.0,HOBO +U30 +Weather +,2013-05-15 12:50:00,
2013-05-15 05:55:00,49.5,47.5,29.68,WSW,237,7.4,11.9,92,0.00,,,-99.99,6.0,HOBO +U30 +Weather +,2013-05-15 12:55:00,
2013-05-15 06:00:00,49.4,47.4,29.68,WSW,240,5.1,11.2,92,0.00,,,-99.99,8.0,HOBO +U30 +Weather +,2013-05-15 13:00:00,
2013-05-15 06:05:00,49.4,47.5,29.69,WSW,237,5.1,11.2,93,0.00,,,-99.99,14.0,HOBO +U30 +Weather +,2013-05-15 13:05:00,
2013-05-15 06:10:00,49.4,47.6,29.69,SW,230,5.6,12.3,93,0.00,,,-99.99,21.0,HOBO +U30 +Weather +,2013-05-15 13:10:00,
2013-05-15 06:15:00,49.5,47.7,29.69,SW,232,6.3,11.2,93,0.00,,,-99.99,29.0,HOBO +U30 +Weather +,2013-05-15 13:15:00,
2013-05-15 06:20:00,49.6,47.9,29.69,SW,236,8.5,14.1,93,0.00,,,-99.99,39.0,HOBO +U30 +Weather +,2013-05-15 13:20:00,
2013-05-15 06:25:00,49.6,48.0,29.69,SW,236,6.3,11.9,93,0.00,,,-99.99,52.0,HOBO +U30 +Weather +,2013-05-15 13:25:00,
2013-05-15 06:30:00,49.7,48.1,29.69,SW,232,7.8,13.4,94,0.00,,,-99.99,68.0,HOBO +U30 +Weather +,2013-05-15 13:30:00,
2013-05-15 06:35:00,49.8,48.2,29.70,SW,230,8.9,17.4,94,0.00,,,-99.99,87.0,HOBO +U30 +Weather +,2013-05-15 13:35:00,
2013-05-15 06:40:00,50.0,48.3,29.69,SW,229,8.9,16.3,93,0.00,,,-99.99,101.0,HOBO +U30 +Weather +,2013-05-15 13:40:00,
2013-05-15 06:45:00,50.0,48.2,29.70,SW,232,9.6,15.9,93,0.00,,,-99.99,99.0,HOBO +U30 +Weather +,2013-05-15 13:45:00,
2013-05-15 06:50:00,50.0,48.3,29.70,SW,233,10.7,19.7,93,0.00,,,-99.99,121.0,HOBO +U30 +Weather +,2013-05-15 13:50:00,
2013-05-15 06:55:00,50.0,48.3,29.70,SW,226,11.9,18.6,93,0.00,,,-99.99,113.0,HOBO +U30 +Weather +,2013-05-15 13:55:00,
2013-05-15 07:00:00,50.2,48.5,29.70,SW,227,11.2,19.7,93,0.00,,,-99.99,178.0,HOBO +U30 +Weather +,2013-05-15 14:00:00,
2013-05-15 07:05:00,50.4,48.5,29.70,SW,229,11.9,17.4,93,0.00,,,-99.99,193.0,HOBO +U30 +Weather +,2013-05-15 14:05:00,
2013-05-15 07:10:00,50.7,48.8,29.70,SW,232,9.6,15.2,93,0.00,,,-99.99,244.0,HOBO +U30 +Weather +,2013-05-15 14:10:00,
2013-05-15 07:15:00,50.6,48.7,29.70,SW,230,10.1,17.0,93,0.00,,,-99.99,272.0,HOBO +U30 +Weather +,2013-05-15 14:15:00,
2013-05-15 07:20:00,50.7,48.8,29.70,SW,226,8.9,16.3,93,0.00,,,-99.99,312.0,HOBO +U30 +Weather +,2013-05-15 14:20:00,
2013-05-15 07:25:00,50.8,48.8,29.70,SW,225,10.1,15.9,92,0.00,,,-99.99,202.0,HOBO +U30 +Weather +,2013-05-15 14:25:00,
2013-05-15 07:30:00,51.0,49.0,29.71,SW,229,10.1,18.6,92,0.00,,,-99.99,214.0,HOBO +U30 +Weather +,2013-05-15 14:30:00,
2013-05-15 07:35:00,51.4,49.1,29.71,SW,230,8.9,18.1,92,0.00,,,-99.99,354.0,HOBO +U30 +Weather +,2013-05-15 14:35:00,
2013-05-15 07:40:00,51.4,49.0,29.71,SW,230,10.1,18.1,91,0.00,,,-99.99,299.0,HOBO +U30 +Weather +,2013-05-15 14:40:00,
2013-05-15 07:45:00,51.5,49.1,29.71,SW,230,10.1,17.4,91,0.00,,,-99.99,203.0,HOBO +U30 +Weather +,2013-05-15 14:45:00,
2013-05-15 07:50:00,51.3,48.9,29.71,SW,233,10.1,17.0,91,0.00,,,-99.99,178.0,HOBO +U30 +Weather +,2013-05-15 14:50:00,
2013-05-15 07:55:00,51.2,48.8,29.71,WSW,239,8.5,17.0,91,0.00,,,-99.99,186.0,HOBO +U30 +Weather +,2013-05-15 14:55:00,
2013-05-15 08:00:00,51.2,48.9,29.72,SW,236,7.8,18.6,91,0.00,,,-99.99,279.0,HOBO +U30 +Weather +,2013-05-15 15:00:00,
2013-05-15 08:05:00,51.8,49.4,29.72,SW,230,8.9,17.0,91,0.00,,,-99.99,276.0,HOBO +U30 +Weather +,2013-05-15 15:05:00,
2013-05-15 08:10:00,52.0,49.2,29.71,SW,233,10.1,19.7,90,0.00,,,-99.99,379.0,HOBO +U30 +Weather +,2013-05-15 15:10:00,
2013-05-15 08:15:00,52.2,49.3,29.71,SW,232,10.1,18.6,89,0.00,,,-99.99,249.0,HOBO +U30 +Weather +,2013-05-15 15:15:00,
2013-05-15 08:20:00,51.9,49.1,29.71,SW,233,11.9,19.7,89,0.00,,,-99.99,319.0,HOBO +U30 +Weather +,2013-05-15 15:20:00,
2013-05-15 08:25:00,52.1,49.1,29.71,SW,233,11.9,20.8,89,0.00,,,-99.99,458.0,HOBO +U30 +Weather +,2013-05-15 15:25:00,
2013-05-15 08:35:00,53.3,49.7,29.71,SW,227,10.1,19.7,87,0.00,,,-99.99,512.0,HOBO +U30 +Weather +,2013-05-15 15:35:00,
2013-05-15 08:36:00,53.0,49.8,29.71,SW,232,10.7,16.3,88,0.00,,,-99.99,493.0,HOBO +U30 +Weather +,2013-05-15 15:36:00,
2013-05-15 08:40:00,53.3,49.4,29.71,SW,230,10.1,17.4,86,0.00,,,-99.99,354.0,HOBO +U30 +Weather +,2013-05-15 15:40:00,
2013-05-15 08:45:00,53.2,49.5,29.71,SW,229,10.1,17.4,87,0.00,,,-99.99,323.0,HOBO +U30 +Weather +,2013-05-15 15:45:00,
2013-05-15 08:50:00,52.5,49.0,29.72,SW,232,10.1,19.7,87,0.00,,,-99.99,294.0,HOBO +U30 +Weather +,2013-05-15 15:50:00,
2013-05-15 08:55:00,53.1,49.8,29.71,SW,230,10.7,19.2,88,0.00,,,-99.99,422.0,HOBO +U30 +Weather +,2013-05-15 15:55:00,
2013-05-15 09:00:00,53.4,49.7,29.72,SW,229,10.1,19.2,87,0.00,,,-99.99,482.0,HOBO +U30 +Weather +,2013-05-15 16:00:00,
2013-05-15 09:05:00,53.8,49.7,29.72,SW,234,8.5,19.7,85,0.00,,,-99.99,388.0,HOBO +U30 +Weather +,2013-05-15 16:05:00,
2013-05-15 09:10:00,53.8,49.6,29.72,SW,230,10.7,16.3,85,0.00,,,-99.99,533.0,HOBO +U30 +Weather +,2013-05-15 16:10:00,
2013-05-15 09:15:00,54.5,50.2,29.72,SW,236,10.7,19.7,85,0.00,,,-99.99,551.0,HOBO +U30 +Weather +,2013-05-15 16:15:00,
2013-05-15 09:20:00,54.0,49.7,29.72,SW,229,11.9,18.6,85,0.00,,,-99.99,534.0,HOBO +U30 +Weather +,2013-05-15 16:20:00,
2013-05-15 09:25:00,54.2,50.2,29.72,SW,232,10.7,18.6,86,0.00,,,-99.99,557.0,HOBO +U30 +Weather +,2013-05-15 16:25:00,
2013-05-15 09:35:00,54.2,50.0,29.72,SW,233,11.2,23.0,85,0.00,,,-99.99,561.0,HOBO +U30 +Weather +,2013-05-15 16:35:00,
2013-05-15 09:40:00,55.2,50.5,29.73,SW,234,9.6,18.6,84,0.00,,,-99.99,599.0,HOBO +U30 +Weather +,2013-05-15 16:40:00,
2013-05-15 09:45:00,54.9,50.3,29.72,SW,233,11.2,21.9,84,0.00,,,-99.99,609.0,HOBO +U30 +Weather +,2013-05-15 16:45:00,
2013-05-15 09:50:00,54.7,50.2,29.72,WSW,237,12.3,20.4,84,0.00,,,-99.99,626.0,HOBO +U30 +Weather +,2013-05-15 16:50:00,
2013-05-15 09:55:00,54.7,50.0,29.72,SW,234,10.7,23.7,84,0.00,,,-99.99,643.0,HOBO +U30 +Weather +,2013-05-15 16:55:00,
2013-05-15 10:00:00,55.0,50.3,29.72,SW,234,13.0,21.9,84,0.00,,,-99.99,656.0,HOBO +U30 +Weather +,2013-05-15 17:00:00,
2013-05-15 10:05:00,55.2,50.6,29.72,SW,236,12.3,21.5,84,0.00,,,-99.99,676.0,HOBO +U30 +Weather +,2013-05-15 17:05:00,
2013-05-15 10:10:00,54.8,50.2,29.72,SW,234,13.4,23.0,84,0.00,,,-99.99,637.0,HOBO +U30 +Weather +,2013-05-15 17:10:00,
2013-05-15 10:15:00,55.3,50.7,29.73,SW,234,11.9,20.4,84,0.00,,,-99.99,701.0,HOBO +U30 +Weather +,2013-05-15 17:15:00,
2013-05-15 10:20:00,55.1,50.0,29.72,SW,236,11.9,21.5,82,0.00,,,-99.99,702.0,HOBO +U30 +Weather +,2013-05-15 17:20:00,
2013-05-15 10:25:00,54.8,50.0,29.72,SW,234,14.1,23.7,83,0.00,,,-99.99,668.0,HOBO +U30 +Weather +,2013-05-15 17:25:00,
2013-05-15 10:35:00,55.2,50.2,29.72,SW,236,13.0,19.7,83,0.00,,,-99.99,719.0,HOBO +U30 +Weather +,2013-05-15 17:35:00,
2013-05-15 10:40:00,55.5,50.4,29.72,SW,227,14.1,24.2,82,0.00,,,-99.99,739.0,HOBO +U30 +Weather +,2013-05-15 17:40:00,
2013-05-15 10:45:00,55.5,50.1,29.72,SW,236,14.1,23.0,82,0.00,,,-99.99,753.0,HOBO +U30 +Weather +,2013-05-15 17:45:00,
2013-05-15 10:50:00,55.5,50.3,29.73,SW,230,14.1,23.0,82,0.00,,,-99.99,767.0,HOBO +U30 +Weather +,2013-05-15 17:50:00,
2013-05-15 10:55:00,56.0,50.6,29.73,SW,230,12.3,20.4,81,0.00,,,-99.99,779.0,HOBO +U30 +Weather +,2013-05-15 17:55:00,
2013-05-15 11:00:00,56.0,50.4,29.73,SW,236,10.7,21.5,81,0.00,,,-99.99,797.0,HOBO +U30 +Weather +,2013-05-15 18:00:00,
2013-05-15 11:05:00,56.0,50.5,29.73,SW,236,12.3,23.7,81,0.00,,,-99.99,783.0,HOBO +U30 +Weather +,2013-05-15 18:05:00,
2013-05-15 11:10:00,57.0,51.0,29.73,SW,226,10.1,20.8,80,0.00,,,-99.99,824.0,HOBO +U30 +Weather +,2013-05-15 18:10:00,
2013-05-15 11:15:00,56.1,50.3,29.73,SW,234,12.3,21.9,80,0.00,,,-99.99,778.0,HOBO +U30 +Weather +,2013-05-15 18:15:00,
2013-05-15 11:20:00,56.1,50.6,29.73,SW,232,11.9,20.4,81,0.00,,,-99.99,777.0,HOBO +U30 +Weather +,2013-05-15 18:20:00,
2013-05-15 11:25:00,55.9,50.4,29.73,SW,233,12.3,19.7,81,0.00,,,-99.99,779.0,HOBO +U30 +Weather +,2013-05-15 18:25:00,
2013-05-15 11:35:00,57.7,51.7,29.73,SW,236,7.8,14.1,80,0.00,,,-99.99,836.0,HOBO +U30 +Weather +,2013-05-15 18:35:00,
2013-05-15 11:40:00,58.2,51.7,29.73,SW,230,7.8,15.9,78,0.00,,,-99.99,813.0,HOBO +U30 +Weather +,2013-05-15 18:40:00,
2013-05-15 11:45:00,58.4,51.7,29.73,WSW,240,7.4,15.2,78,0.00,,,-99.99,811.0,HOBO +U30 +Weather +,2013-05-15 18:45:00,
2013-05-15 11:50:00,57.7,51.2,29.73,SW,236,9.6,18.6,78,0.00,,,-99.99,841.0,HOBO +U30 +Weather +,2013-05-15 18:50:00,
2013-05-15 11:55:00,57.3,50.6,29.73,SW,232,9.6,17.0,78,0.00,,,-99.99,598.0,HOBO +U30 +Weather +,2013-05-15 18:55:00,
2013-05-15 12:00:00,57.4,50.8,29.73,SW,234,8.5,14.5,78,0.00,,,-99.99,442.0,HOBO +U30 +Weather +,2013-05-15 19:00:00,
2013-05-15 12:05:00,56.3,50.4,29.73,SW,227,10.1,24.8,80,0.00,,,-99.99,933.0,HOBO +U30 +Weather +,2013-05-15 19:05:00,
2013-05-15 12:10:00,56.9,50.9,29.73,SW,234,10.1,18.1,80,0.00,,,-99.99,568.0,HOBO +U30 +Weather +,2013-05-15 19:10:00,
2013-05-15 12:15:00,58.7,52.2,29.73,SW,226,6.7,15.9,78,0.00,,,-99.99,992.0,HOBO +U30 +Weather +,2013-05-15 19:15:00,
2013-05-15 12:20:00,58.5,51.1,29.73,WSW,243,6.7,14.5,76,0.00,,,-99.99,866.0,HOBO +U30 +Weather +,2013-05-15 19:20:00,
2013-05-15 12:25:00,57.6,50.3,29.73,SW,232,7.4,15.2,76,0.00,,,-99.99,876.0,HOBO +U30 +Weather +,2013-05-15 19:25:00,
2013-05-15 12:35:00,57.3,50.3,29.73,WSW,239,8.9,17.0,77,0.00,,,-99.99,862.0,HOBO +U30 +Weather +,2013-05-15 19:35:00,
2013-05-15 12:40:00,57.0,49.1,29.73,SW,236,11.2,23.7,74,0.00,,,-99.99,758.0,HOBO +U30 +Weather +,2013-05-15 19:40:00,
2013-05-15 12:45:00,57.8,49.7,29.72,SW,233,11.2,23.7,74,0.00,,,-99.99,768.0,HOBO +U30 +Weather +,2013-05-15 19:45:00,
2013-05-15 12:50:00,57.9,49.5,29.72,SW,234,11.9,20.4,73,0.00,,,-99.99,714.0,HOBO +U30 +Weather +,2013-05-15 19:50:00,
2013-05-15 12:55:00,57.6,49.5,29.73,WSW,237,11.9,24.2,74,0.00,,,-99.99,836.0,HOBO +U30 +Weather +,2013-05-15 19:55:00,
2013-05-15 13:00:00,57.4,49.6,29.72,SW,234,14.1,23.7,75,0.00,,,-99.99,854.0,HOBO +U30 +Weather +,2013-05-15 20:00:00,
2013-05-15 13:05:00,57.6,49.4,29.73,SW,233,11.2,19.2,73,0.00,,,-99.99,592.0,HOBO +U30 +Weather +,2013-05-15 20:05:00,
2013-05-15 13:10:00,57.1,49.8,29.73,SW,234,12.3,23.0,76,0.00,,,-99.99,476.0,HOBO +U30 +Weather +,2013-05-15 20:10:00,
2013-05-15 13:15:00,57.1,49.6,29.73,WSW,240,9.6,18.1,76,0.00,,,-99.99,668.0,HOBO +U30 +Weather +,2013-05-15 20:15:00,
2013-05-15 13:20:00,57.4,50.5,29.73,WSW,240,8.9,23.7,77,0.00,,,-99.99,566.0,HOBO +U30 +Weather +,2013-05-15 20:20:00,
2013-05-15 13:25:00,57.5,50.2,29.73,SW,232,6.7,15.9,76,0.00,,,-99.99,594.0,HOBO +U30 +Weather +,2013-05-15 20:25:00,
2013-05-15 13:35:00,57.5,50.2,29.73,WSW,243,7.4,17.4,76,0.00,,,-99.99,526.0,HOBO +U30 +Weather +,2013-05-15 20:35:00,
2013-05-15 13:40:00,57.8,50.5,29.73,WSW,237,8.5,19.2,76,0.00,,,-99.99,668.0,HOBO +U30 +Weather +,2013-05-15 20:40:00,
2013-05-15 13:45:00,57.8,50.6,29.73,SW,234,8.9,18.6,76,0.00,,,-99.99,603.0,HOBO +U30 +Weather +,2013-05-15 20:45:00,
2013-05-15 13:50:00,57.4,50.2,29.73,WSW,241,8.9,18.1,76,0.00,,,-99.99,534.0,HOBO +U30 +Weather +,2013-05-15 20:50:00,
2013-05-15 13:55:00,56.8,49.9,29.73,WSW,237,9.6,17.0,77,0.00,,,-99.99,596.0,HOBO +U30 +Weather +,2013-05-15 20:55:00,
2013-05-15 14:00:00,56.8,50.3,29.73,SW,232,11.2,19.2,78,0.00,,,-99.99,886.0,HOBO +U30 +Weather +,2013-05-15 21:00:00,
2013-05-15 14:05:00,58.0,51.2,29.73,SW,236,10.7,19.7,78,0.00,,,-99.99,604.0,HOBO +U30 +Weather +,2013-05-15 21:05:00,
2013-05-15 14:10:00,57.0,50.0,29.73,SW,236,10.7,23.0,77,0.00,,,-99.99,597.0,HOBO +U30 +Weather +,2013-05-15 21:10:00,
2013-05-15 14:15:00,56.8,50.0,29.73,SW,234,11.9,19.7,78,0.00,,,-99.99,562.0,HOBO +U30 +Weather +,2013-05-15 21:15:00,
2013-05-15 14:20:00,57.1,50.3,29.73,SW,236,10.7,18.6,78,0.00,,,-99.99,619.0,HOBO +U30 +Weather +,2013-05-15 21:20:00,
2013-05-15 14:25:00,56.3,49.7,29.73,SW,230,13.0,20.8,78,0.00,,,-99.99,544.0,HOBO +U30 +Weather +,2013-05-15 21:25:00,
2013-05-15 14:35:00,56.6,50.0,29.73,SW,233,13.0,20.8,78,0.00,,,-99.99,628.0,HOBO +U30 +Weather +,2013-05-15 21:35:00,
2013-05-15 14:40:00,56.9,49.9,29.72,SW,233,14.1,24.8,77,0.00,,,-99.99,557.0,HOBO +U30 +Weather +,2013-05-15 21:40:00,
2013-05-15 14:45:00,56.5,49.8,29.72,SW,232,15.9,23.7,78,0.00,,,-99.99,671.0,HOBO +U30 +Weather +,2013-05-15 21:45:00,
2013-05-15 14:50:00,56.7,49.9,29.73,SW,234,15.2,23.0,77,0.00,,,-99.99,701.0,HOBO +U30 +Weather +,2013-05-15 21:50:00,
2013-05-15 14:55:00,57.1,50.1,29.73,SW,230,13.0,21.5,77,0.00,,,-99.99,748.0,HOBO +U30 +Weather +,2013-05-15 21:55:00,
2013-05-15 15:00:00,57.6,50.5,29.73,SW,234,11.9,23.7,76,0.00,,,-99.99,747.0,HOBO +U30 +Weather +,2013-05-15 22:00:00,
2013-05-15 15:05:00,57.5,50.5,29.73,SW,232,12.3,20.8,77,0.00,,,-99.99,653.0,HOBO +U30 +Weather +,2013-05-15 22:05:00,
2013-05-15 15:10:00,58.7,51.2,29.73,SW,227,8.5,14.5,76,0.00,,,-99.99,709.0,HOBO +U30 +Weather +,2013-05-15 22:10:00,
2013-05-15 15:15:00,58.5,51.1,29.72,SW,229,8.9,15.9,76,0.00,,,-99.99,771.0,HOBO +U30 +Weather +,2013-05-15 22:15:00,
2013-05-15 15:20:00,58.9,51.5,29.72,WSW,247,7.8,17.4,76,0.00,,,-99.99,718.0,HOBO +U30 +Weather +,2013-05-15 22:20:00,
2013-05-15 15:25:00,58.5,50.6,29.72,WSW,240,8.9,15.2,75,0.00,,,-99.99,646.0,HOBO +U30 +Weather +,2013-05-15 22:25:00,
2013-05-15 15:35:00,58.7,51.1,29.72,WSW,239,7.8,15.2,75,0.00,,,-99.99,642.0,HOBO +U30 +Weather +,2013-05-15 22:35:00,
2013-05-15 15:40:00,58.0,51.2,29.71,WSW,247,8.5,17.4,77,0.00,,,-99.99,569.0,HOBO +U30 +Weather +,2013-05-15 22:40:00,
2013-05-15 15:45:00,59.3,52.3,29.71,SW,236,8.5,22.6,77,0.00,,,-99.99,766.0,HOBO +U30 +Weather +,2013-05-15 22:45:00,
2013-05-15 15:50:00,59.2,51.9,29.71,SW,234,8.5,16.3,76,0.00,,,-99.99,753.0,HOBO +U30 +Weather +,2013-05-15 22:50:00,
2013-05-15 15:55:00,58.7,51.3,29.71,SW,233,8.9,18.6,76,0.00,,,-99.99,704.0,HOBO +U30 +Weather +,2013-05-15 22:55:00,
2013-05-15 16:00:00,58.8,52.0,29.71,SW,234,8.9,20.4,78,0.00,,,-99.99,682.0,HOBO +U30 +Weather +,2013-05-15 23:00:00,
2013-05-15 16:05:00,58.9,52.3,29.71,WSW,239,9.6,18.6,78,0.00,,,-99.99,684.0,HOBO +U30 +Weather +,2013-05-15 23:05:00,
2013-05-15 16:10:00,58.8,52.1,29.71,WSW,240,9.6,18.6,78,0.00,,,-99.99,649.0,HOBO +U30 +Weather +,2013-05-15 23:10:00,
2013-05-15 16:15:00,58.1,51.7,29.71,WSW,241,7.8,15.2,79,0.00,,,-99.99,339.0,HOBO +U30 +Weather +,2013-05-15 23:15:00,
2013-05-15 16:20:00,57.5,51.7,29.71,SW,236,8.5,15.2,80,0.00,,,-99.99,641.0,HOBO +U30 +Weather +,2013-05-15 23:20:00,
2013-05-15 16:34:00,57.8,52.2,29.71,SW,232,10.1,16.3,81,0.00,,,-99.99,551.0,HOBO +U30 +Weather +,2013-05-15 23:34:00,
2013-05-15 16:35:00,57.8,52.1,29.71,SW,236,8.9,18.1,81,0.00,,,-99.99,396.0,HOBO +U30 +Weather +,2013-05-15 23:35:00,
2013-05-15 16:40:00,57.7,51.9,29.71,SW,233,9.6,20.8,80,0.00,,,-99.99,521.0,HOBO +U30 +Weather +,2013-05-15 23:40:00,
2013-05-15 16:45:00,57.8,52.1,29.71,SW,225,9.6,17.4,81,0.00,,,-99.99,332.0,HOBO +U30 +Weather +,2013-05-15 23:45:00,
2013-05-15 16:50:00,57.3,51.8,29.70,SW,233,12.3,21.5,81,0.00,,,-99.99,537.0,HOBO +U30 +Weather +,2013-05-15 23:50:00,
2013-05-15 16:55:00,58.2,52.6,29.70,SW,226,10.1,20.4,81,0.00,,,-99.99,539.0,HOBO +U30 +Weather +,2013-05-15 23:55:00,
2013-05-15 17:00:00,57.4,52.0,29.70,SW,230,11.2,19.7,82,0.00,,,-99.99,521.0,HOBO +U30 +Weather +,2013-05-16 00:00:00,
2013-05-15 17:05:00,57.6,52.2,29.70,SW,227,10.1,24.8,82,0.00,,,-99.99,498.0,HOBO +U30 +Weather +,2013-05-16 00:05:00,
2013-05-15 17:10:00,57.3,52.2,29.71,SW,234,13.4,25.3,82,0.00,,,-99.99,477.0,HOBO +U30 +Weather +,2013-05-16 00:10:00,
2013-05-15 17:15:00,57.0,51.6,29.70,SW,232,10.7,20.8,82,0.00,,,-99.99,462.0,HOBO +U30 +Weather +,2013-05-16 00:15:00,
2013-05-15 17:20:00,56.5,51.5,29.70,SW,226,12.3,23.0,83,0.00,,,-99.99,463.0,HOBO +U30 +Weather +,2013-05-16 00:20:00,
2013-05-15 17:33:00,56.8,52.2,29.70,SW,226,10.7,23.0,84,0.00,,,-99.99,439.0,HOBO +U30 +Weather +,2013-05-16 00:33:00,
2013-05-15 17:35:00,56.5,51.9,29.71,WSW,239,7.4,17.0,84,0.00,,,-99.99,363.0,HOBO +U30 +Weather +,2013-05-16 00:35:00,
2013-05-15 17:40:00,56.5,52.2,29.70,SW,233,8.9,17.4,85,0.00,,,-99.99,397.0,HOBO +U30 +Weather +,2013-05-16 00:40:00,
2013-05-15 17:45:00,56.8,52.4,29.70,SW,226,7.8,15.2,85,0.00,,,-99.99,386.0,HOBO +U30 +Weather +,2013-05-16 00:45:00,
2013-05-15 17:50:00,56.9,52.5,29.70,SW,232,7.8,17.0,85,0.00,,,-99.99,367.0,HOBO +U30 +Weather +,2013-05-16 00:50:00,
2013-05-15 17:55:00,56.6,52.3,29.70,SW,232,9.6,19.2,85,0.00,,,-99.99,347.0,HOBO +U30 +Weather +,2013-05-16 00:55:00,
2013-05-15 18:00:00,56.5,52.1,29.70,SW,232,7.4,14.5,84,0.00,,,-99.99,304.0,HOBO +U30 +Weather +,2013-05-16 01:00:00,
2013-05-15 18:05:00,56.3,52.0,29.69,SW,227,8.9,17.0,85,0.00,,,-99.99,317.0,HOBO +U30 +Weather +,2013-05-16 01:05:00,
2013-05-15 18:10:00,56.3,52.1,29.69,SW,227,9.6,17.0,85,0.00,,,-99.99,302.0,HOBO +U30 +Weather +,2013-05-16 01:10:00,
2013-05-15 18:15:00,56.2,51.9,29.69,SW,227,10.1,17.0,85,0.00,,,-99.99,289.0,HOBO +U30 +Weather +,2013-05-16 01:15:00,
2013-05-15 18:20:00,56.0,51.9,29.69,SW,233,10.1,19.2,85,0.00,,,-99.99,276.0,HOBO +U30 +Weather +,2013-05-16 01:20:00,
2013-05-15 18:33:00,56.7,52.3,29.69,SW,234,7.4,17.0,85,0.00,,,-99.99,253.0,HOBO +U30 +Weather +,2013-05-16 01:33:00,
2013-05-15 18:35:00,56.6,51.9,29.69,SW,234,6.3,14.1,84,0.00,,,-99.99,189.0,HOBO +U30 +Weather +,2013-05-16 01:35:00,
2013-05-15 18:40:00,55.8,51.5,29.69,SW,229,7.8,18.1,85,0.00,,,-99.99,163.0,HOBO +U30 +Weather +,2013-05-16 01:40:00,
2013-05-15 18:45:00,55.7,51.6,29.69,SW,229,8.9,15.9,86,0.00,,,-99.99,207.0,HOBO +U30 +Weather +,2013-05-16 01:45:00,
2013-05-15 18:50:00,56.0,51.8,29.68,SW,229,7.8,13.4,85,0.00,,,-99.99,194.0,HOBO +U30 +Weather +,2013-05-16 01:50:00,
2013-05-15 18:55:00,56.2,51.8,29.68,SW,227,7.4,14.1,85,0.00,,,-99.99,151.0,HOBO +U30 +Weather +,2013-05-16 01:55:00,
2013-05-15 19:00:00,56.1,51.7,29.68,SW,232,6.3,13.4,85,0.00,,,-99.99,142.0,HOBO +U30 +Weather +,2013-05-16 02:00:00,
2013-05-15 19:05:00,55.7,51.4,29.68,SW,226,6.3,14.1,85,0.00,,,-99.99,147.0,HOBO +U30 +Weather +,2013-05-16 02:05:00,
2013-05-15 19:10:00,55.0,51.0,29.69,SW,225,8.5,15.2,86,0.00,,,-99.99,112.0,HOBO +U30 +Weather +,2013-05-16 02:10:00,
2013-05-15 19:15:00,54.8,51.2,29.69,SW,223,6.7,13.4,87,0.00,,,-99.99,123.0,HOBO +U30 +Weather +,2013-05-16 02:15:00,
2013-05-15 19:20:00,54.6,51.2,29.69,SW,223,7.4,13.4,88,0.00,,,-99.99,37.0,HOBO +U30 +Weather +,2013-05-16 02:20:00,
2013-05-15 19:30:00,53.6,50.8,29.69,SW,230,9.6,17.4,90,0.00,,,-99.99,28.0,HOBO +U30 +Weather +,2013-05-16 02:30:00,
2013-05-15 19:32:00,54.1,51.0,29.69,SW,232,7.8,14.1,89,0.00,,,-99.99,32.0,HOBO +U30 +Weather +,2013-05-16 02:32:00,
2013-05-15 19:35:00,53.4,50.8,29.69,SW,229,8.9,14.1,90,0.00,,,-99.99,23.0,HOBO +U30 +Weather +,2013-05-16 02:35:00,
2013-05-15 19:40:00,53.3,50.7,29.69,SW,233,6.3,10.7,91,0.00,,,-99.99,19.0,HOBO +U30 +Weather +,2013-05-16 02:40:00,
2013-05-15 19:45:00,53.2,50.8,29.69,SW,219,5.1,10.1,91,0.00,,,-99.99,19.0,HOBO +U30 +Weather +,2013-05-16 02:45:00,
2013-05-15 19:50:00,53.2,50.8,29.69,SW,229,4.5,8.5,91,0.00,,,-99.99,12.0,HOBO +U30 +Weather +,2013-05-16 02:50:00,
2013-05-15 19:55:00,53.0,50.7,29.69,SW,223,5.6,13.4,91,0.00,,,-99.99,8.0,HOBO +U30 +Weather +,2013-05-16 02:55:00,
2013-05-15 20:00:00,53.0,50.8,29.69,SW,233,8.5,13.0,92,0.00,,,-99.99,6.0,HOBO +U30 +Weather +,2013-05-16 03:00:00,
2013-05-15 20:05:00,53.0,50.7,29.69,SW,230,10.1,17.0,91,0.00,,,-99.99,3.0,HOBO +U30 +Weather +,2013-05-16 03:05:00,
2013-05-15 20:10:00,53.0,50.7,29.69,SW,226,8.9,16.3,91,0.00,,,-99.99,1.0,HOBO +U30 +Weather +,2013-05-16 03:10:00,
2013-05-15 20:15:00,53.2,50.8,29.69,SW,229,8.5,15.2,91,0.00,,,-99.99,1.0,HOBO +U30 +Weather +,2013-05-16 03:15:00,
2013-05-15 20:20:00,53.1,50.6,29.69,SW,229,8.5,15.2,91,0.00,,,-99.99,1.0,HOBO +U30 +Weather +,2013-05-16 03:20:00,
2013-05-15 20:30:00,53.1,50.6,29.69,SW,226,8.9,14.1,91,0.00,,,-99.99,1.0,HOBO +U30 +Weather +,2013-05-16 03:30:00,
2013-05-15 20:32:00,53.1,50.6,29.69,SW,233,9.6,14.5,91,0.00,,,-99.99,1.0,HOBO +U30 +Weather +,2013-05-16 03:32:00,
2013-05-15 20:35:00,53.1,50.5,29.69,SW,233,7.8,13.4,90,0.00,,,-99.99,1.0,HOBO +U30 +Weather +,2013-05-16 03:35:00,
2013-05-15 20:40:00,53.0,50.5,29.69,SW,233,9.6,14.1,91,0.00,,,-99.99,1.0,HOBO +U30 +Weather +,2013-05-16 03:40:00,
2013-05-15 20:45:00,52.9,50.6,29.69,SW,232,10.1,17.0,91,0.00,,,-99.99,1.0,HOBO +U30 +Weather +,2013-05-16 03:45:00,
2013-05-15 20:50:00,52.8,50.8,29.69,SW,233,9.6,15.9,92,0.00,,,-99.99,1.0,HOBO +U30 +Weather +,2013-05-16 03:50:00,
2013-05-15 20:55:00,52.7,50.8,29.69,SW,234,9.6,17.4,93,0.00,,,-99.99,1.0,HOBO +U30 +Weather +,2013-05-16 03:55:00,
2013-05-15 21:00:00,52.6,50.8,29.69,SW,233,9.6,14.5,93,0.00,,,-99.99,1.0,HOBO +U30 +Weather +,2013-05-16 04:00:00,
2013-05-15 21:05:00,52.5,50.8,29.69,SW,232,8.9,15.2,93,0.00,,,-99.99,1.0,HOBO +U30 +Weather +,2013-05-16 04:05:00,
2013-05-15 21:10:00,52.4,50.8,29.70,SW,232,8.9,15.2,94,0.00,,,-99.99,1.0,HOBO +U30 +Weather +,2013-05-16 04:10:00,
2013-05-15 21:15:00,52.2,50.9,29.70,SW,226,10.1,14.1,94,0.00,,,-99.99,1.0,HOBO +U30 +Weather +,2013-05-16 04:15:00,
2013-05-15 21:20:00,52.2,50.9,29.70,SW,232,11.2,16.3,95,0.00,,,-99.99,1.0,HOBO +U30 +Weather +,2013-05-16 04:20:00,
2013-05-15 21:25:00,52.2,50.9,29.70,SW,230,9.6,17.4,95,0.00,,,-99.99,1.0,HOBO +U30 +Weather +,2013-05-16 04:25:00,
2013-05-15 21:30:00,52.2,50.8,29.70,SW,233,8.5,14.5,94,0.00,,,-99.99,1.0,HOBO +U30 +Weather +,2013-05-16 04:30:00,
2013-05-15 21:35:00,52.2,50.9,29.70,SW,229,8.9,14.1,95,0.00,,,-99.99,1.0,HOBO +U30 +Weather +,2013-05-16 04:35:00,
2013-05-15 21:40:00,52.2,51.0,29.70,SW,230,8.5,13.0,95,0.00,,,-99.99,1.0,HOBO +U30 +Weather +,2013-05-16 04:40:00,
2013-05-15 21:45:00,52.2,51.1,29.70,SW,229,9.6,14.5,95,0.00,,,-99.99,1.0,HOBO +U30 +Weather +,2013-05-16 04:45:00,
2013-05-15 21:50:00,52.1,51.0,29.70,SW,230,11.9,19.7,96,0.00,,,-99.99,1.0,HOBO +U30 +Weather +,2013-05-16 04:50:00,
2013-05-15 21:55:00,52.2,51.1,29.70,SW,232,10.1,17.0,96,0.00,,,-99.99,1.0,HOBO +U30 +Weather +,2013-05-16 04:55:00,
2013-05-15 22:00:00,52.2,51.0,29.70,SW,232,10.1,14.1,95,0.00,,,-99.99,1.0,HOBO +U30 +Weather +,2013-05-16 05:00:00,
2013-05-15 22:05:00,52.2,51.0,29.70,SW,232,7.8,13.0,95,0.00,,,-99.99,1.0,HOBO +U30 +Weather +,2013-05-16 05:05:00,
2013-05-15 22:10:00,52.2,51.0,29.71,SW,232,8.5,13.4,95,0.00,,,-99.99,1.0,HOBO +U30 +Weather +,2013-05-16 05:10:00,
2013-05-15 22:15:00,52.2,51.0,29.70,SW,230,8.5,14.5,95,0.00,,,-99.99,1.0,HOBO +U30 +Weather +,2013-05-16 05:15:00,
2013-05-15 22:20:00,52.1,51.0,29.71,SW,236,8.5,14.5,96,0.00,,,-99.99,1.0,HOBO +U30 +Weather +,2013-05-16 05:20:00,
2013-05-15 22:25:00,52.1,51.1,29.71,SW,229,7.8,18.6,96,0.00,,,-99.99,1.0,HOBO +U30 +Weather +,2013-05-16 05:25:00,
2013-05-15 22:30:00,52.0,51.1,29.71,SW,233,7.4,12.3,96,0.00,,,-99.99,1.0,HOBO +U30 +Weather +,2013-05-16 05:30:00,
2013-05-15 22:35:00,52.0,51.1,29.70,SW,230,8.5,14.1,96,0.00,,,-99.99,1.0,HOBO +U30 +Weather +,2013-05-16 05:35:00,
2013-05-15 22:40:00,51.9,51.0,29.71,SW,233,8.5,15.2,96,0.00,,,-99.99,1.0,HOBO +U30 +Weather +,2013-05-16 05:40:00,
2013-05-15 22:45:00,51.8,51.1,29.71,SW,233,6.7,11.9,97,0.00,,,-99.99,1.0,HOBO +U30 +Weather +,2013-05-16 05:45:00,
2013-05-15 22:50:00,51.8,51.1,29.71,SW,229,7.4,13.4,97,0.00,,,-99.99,1.0,HOBO +U30 +Weather +,2013-05-16 05:50:00,
2013-05-15 22:55:00,51.9,51.2,29.71,SW,232,7.8,12.3,97,0.00,,,-99.99,1.0,HOBO +U30 +Weather +,2013-05-16 05:55:00,
2013-05-15 23:00:00,51.9,51.1,29.70,SW,227,8.9,13.4,97,0.00,,,-99.99,1.0,HOBO +U30 +Weather +,2013-05-16 06:00:00,
2013-05-15 23:05:00,51.8,51.1,29.70,SW,230,8.5,13.0,97,0.00,,,-99.99,1.0,HOBO +U30 +Weather +,2013-05-16 06:05:00,
2013-05-15 23:10:00,51.8,51.2,29.70,SW,229,8.9,14.5,97,0.00,,,-99.99,1.0,HOBO +U30 +Weather +,2013-05-16 06:10:00,
2013-05-15 23:15:00,51.8,51.2,29.70,SW,230,7.4,12.3,97,0.00,,,-99.99,1.0,HOBO +U30 +Weather +,2013-05-16 06:15:00,
2013-05-15 23:20:00,51.9,51.3,29.70,SW,229,8.5,15.2,97,0.00,,,-99.99,1.0,HOBO +U30 +Weather +,2013-05-16 06:20:00,
2013-05-15 23:30:00,51.9,51.4,29.70,SW,230,7.8,12.3,98,0.00,,,-99.99,1.0,HOBO +U30 +Weather +,2013-05-16 06:30:00,
2013-05-15 23:35:00,52.0,51.7,29.70,SW,234,6.7,10.7,98,0.00,,,-99.99,1.0,HOBO +U30 +Weather +,2013-05-16 06:35:00,
2013-05-15 23:40:00,52.0,51.7,29.70,SW,229,5.6,8.9,98,0.00,,,-99.99,1.0,HOBO +U30 +Weather +,2013-05-16 06:40:00,
2013-05-15 23:45:00,52.0,51.7,29.70,SW,229,7.8,12.3,98,0.00,,,-99.99,1.0,HOBO +U30 +Weather +,2013-05-16 06:45:00,
2013-05-15 23:50:00,52.1,51.8,29.70,SW,234,7.4,11.9,98,0.00,,,-99.99,1.0,HOBO +U30 +Weather +,2013-05-16 06:50:00,
2013-05-15 23:55:00,52.1,51.8,29.70,SW,232,7.8,11.2,98,0.00,,,-99.99,1.0,HOBO +U30 +Weather +,2013-05-16 06:55:00,